Bolingbrook's Clow International Airport

Jump to: basic info | weather | frequencies | runways | comments

Related pages: nearby airports | nearby navaids | notams | map

Basic information (top)

Codes: K1C5 1C5
Location: lon 41.695999, lat -88.129204, elev 670 ft / 204 m msl
Status: small_airport
Scheduled airline service: no
Links: Wikipedia Mobile

Weather (top)

Current conditions for Lewis University Airport 6nm (10km) SSE (rec'd 2014/10/30 15:55Z):

KLOT 301555Z AUTO 23007KT 10SM SCT120 08/01 A3013

Airport forecast for Dupage Airport 14nm (26km) NNW (rec'd 2014/10/30 12:24Z):

TAF KDPA 301120Z 3012/3112 00000KT P6SM BKN250 
     FM301300 22005KT P6SM SCT050 BKN250 
     FM301900 25008KT P6SM SCT040 BKN100 
     FM302300 27004KT P6SM SCT035 OVC060 
     FM310400 30010KT P6SM VCSH BKN012 OVC025 
     FM310900 33014G24KT P6SM SCT012 BKN035

Frequencies (top)

Verify before use: may be inaccurate or out of date.

A/D: 119.35 MHz (CHICAGO APP/DEP)
CTAF: 122.9 MHz (CTAF)

Runways (top)

18/36: 3,362 x 50 ft (1,025 x 15 m) — other (ASPH-G) — lighted — threshold 18 displaced 190 ft (58 m) — threshold 36 displaced 130 ft (40 m)

Latest comments (top)

1C5 - Clow International - First Starts: I started primary training here a long ... [read]

More... (top)

See also NOTAMs and nearby airports and navaids, or visit the Bolingbrook's Clow International Airport page at the main OurAirports website..